BAW207 EGLL-KMIA

Flight info

Callsign BAW207
Flight time N/A
Altitude 34000
Route CPT DCT DIDZA L9 OKSAW DCT BIBPE DCT BUCGO DCT FELCA DCT OFSOX DCT BANBA DCT DINIM/M084F340 DCT 51N020W 50N030W 48N040W 4630N05000W DCT RELIC DCT CARAC/M084F380 M201 DRYED DCT KINER DCT JNFOX M203 SNAGY/N0486F380 BNFSH3
Aircraft A388/J-SADE2E3FGHIJ3J4J5M1RWXY/LB1D1

Departure

Time N/A
Airport London Heathrow Airport (EGLL)

Arrival

Time 2026-05-03 20:18
Airport Miami International Airport (KMIA)
Time Latitude Longitude Altitude Speed Heading
2026-05-03 20:15 25.78106 -80.43642 2178 ft 156 kts 87°
2026-05-03 20:15 25.78169 -80.42107 1924 ft 145 kts 87°
2026-05-03 20:15 25.78200 -80.41357 1801 ft 144 kts 87°
2026-05-03 20:15 25.78248 -80.40223 1612 ft 148 kts 86°
2026-05-03 20:16 25.78295 -80.39098 1421 ft 148 kts 87°
2026-05-03 20:16 25.78336 -80.37963 1241 ft 146 kts 87°
2026-05-03 20:16 25.78372 -80.36835 1053 ft 146 kts 87°
2026-05-03 20:16 25.78408 -80.35723 869 ft 142 kts 86°
2026-05-03 20:17 25.78464 -80.34634 672 ft 140 kts 85°
2026-05-03 20:17 25.78511 -80.33554 485 ft 140 kts 85°
2026-05-03 20:17 25.78561 -80.32477 307 ft 138 kts 84°
2026-05-03 20:17 25.78610 -80.31400 90 ft 139 kts 85°
2026-05-03 20:18 25.78655 -80.30397 20 ft 112 kts 88°
2026-05-03 20:18 25.78685 -80.29688 22 ft 75 kts 88°
2026-05-03 20:18 25.78704 -80.29216 24 ft 44 kts 88°
2026-05-03 20:18 25.78714 -80.28924 23 ft 27 kts 85°
2026-05-03 20:19 25.78764 -80.28737 22 ft 24 kts 52°
2026-05-03 20:19 25.78870 -80.28631 20 ft 19 kts 38°
2026-05-03 20:19 25.78888 -80.28616 20 ft 0 kts 36°
2026-05-03 20:21 25.78893 -80.28612 24 ft 3 kts 36°
2026-05-03 20:21 25.78925 -80.28586 23 ft 8 kts 36°
2026-05-03 20:21 25.78977 -80.28544 22 ft 11 kts 35°
2026-05-03 20:22 25.79046 -80.28490 20 ft 14 kts 35°
2026-05-03 20:22 25.79131 -80.28427 23 ft 15 kts 33°
2026-05-03 20:22 25.79209 -80.28391 21 ft 11 kts 20°
2026-05-03 20:22 25.79245 -80.28367 23 ft 6 kts 42°
2026-05-03 20:23 25.79268 -80.28344 24 ft 4 kts 42°
2026-05-03 20:23 25.79293 -80.28319 20 ft 0 kts 42°
2026-05-03 20:23 25.79311 -80.28300 22 ft 6 kts 40°
2026-05-03 20:23 25.79341 -80.28295 21 ft 5 kts 339°
2026-05-03 20:24 25.79382 -80.28325 22 ft 6 kts 322°
2026-05-03 20:24 25.79403 -80.28342 24 ft 4 kts 324°
2026-05-03 20:24 25.79408 -80.28347 24 ft 2 kts 324°
2026-05-03 20:24 25.79412 -80.28350 23 ft 0 kts 324°
2026-05-03 20:25 25.80072 -80.28877 1827 ft 259 kts 326°